Voltar ao catálogo

COSMOS 2119

AtivoMilitarPO
NORAD 21033·PAYLOAD·🇷🇺 Russia

Lançado Dec 22, 1990 de Plesetsk Cosmodrome

Loading…

Próximas Passagens (próximas 24 horas)

TLE

AtualizadoSource: Space-Track

Época: Sep 14, 2026, 13:31 UTC

1 21033U 90114F   26257.56376182  .00000023  00000-0  64865-4 0  9992
2 21033  82.5701 116.4351 0014731 126.7291 247.5469 12.66375830651346

Acompanhe COSMOS 2119 em tempo real com AllMySat

Download on the App Store